sat.trackr.live / text

‹ back to catalog

STARLINK-36943

NORAD 68035 · 2026-040W

PAYLOAD ACTIVE UNKNOWN

§ Identity

Operator
Country
US
Launch date
2026-03-01
Launch site
AFWTR
Launch vehicle
Mass (kg)
RCS (m²)

Purposes: comms

External: N2YO · Heavens-Above · Gunter

§ Orbital elements

Epoch: 2026-09-19T20:41:51.811008Z

Period
93.91 min
Inclination
97.2852°
Eccentricity
0.0000475
Mean motion
15.33454017 rev/d
Perigee alt
465.2 km
Apogee alt
465.8 km
Semi-major
6,843.7 km
B*
7.0037e-4
RAAN
210.2693°
Arg perigee
35.3986°
Mean anomaly
324.7289°
Rev number
3,235

§ Raw data

STARLINK-369431 68035U 26040W   26262.86240522  .00022609  00000+0  70037-3 0  99992 68035  97.2852 210.2693 0000475  35.3986 324.7289 15.33454017 32351

JSON: /api/v1/satellites/68035 · /tle

For live sub-satellite position, see the globe view (requires WebGL).

§ Visibility from observer

Set your observer location to see the next 7 days of passes ≥ 10°. The values pass through the URL so the page stays shareable.

No JS? Fill the form by hand. The geolocation button needs JavaScript.